owner,sensor,date,latitude,longitude,air_pressure(mBar),qcFlag 
WAVCIS,ioos:station:WAVCIS:CSI06:1,2009-05-01T00:00:00Z,28.8667,-90.4833,1018.52,11111222 
WAVCIS,ioos:station:WAVCIS:CSI06:1,2009-05-01T01:00:00Z,28.8667,-90.4833,1018.54,11111222 
WAVCIS,ioos:station:WAVCIS:CSI06:1,2009-05-01T02:00:00Z,28.8667,-90.4833,1019.23,11111222 
WAVCIS,ioos:station:WAVCIS:CSI06:1,2009-05-01T03:00:00Z,28.8667,-90.4833,1019.33,11111222 
WAVCIS,ioos:station:WAVCIS:CSI06:1,2009-05-01T04:00:00Z,28.8667,-90.4833,1019.44,11111222 
WAVCIS,ioos:station:WAVCIS:CSI06:1,2009-05-01T05:00:00Z,28.8667,-90.4833,1019.59,11111222 
WAVCIS,ioos:station:WAVCIS:CSI06:1,2009-05-01T06:00:00Z,28.8667,-90.4833,1019.42,11111222 
WAVCIS,ioos:station:WAVCIS:CSI06:1,2009-05-01T07:00:00Z,28.8667,-90.4833,1019.17,11111222 
WAVCIS,ioos:station:WAVCIS:CSI06:1,2009-05-01T08:00:00Z,28.8667,-90.4833,1017.84,11111222 
WAVCIS,ioos:station:WAVCIS:CSI06:1,2009-05-01T09:00:00Z,28.8667,-90.4833,1018.44,11111222 
WAVCIS,ioos:station:WAVCIS:CSI06:1,2009-05-01T10:00:00Z,28.8667,-90.4833,1018.04,11111222 
WAVCIS,ioos:station:WAVCIS:CSI06:1,2009-05-01T11:00:00Z,28.8667,-90.4833,1018.45,11111222 
WAVCIS,ioos:station:WAVCIS:CSI06:1,2009-05-01T12:00:00Z,28.8667,-90.4833,1018.89,11111222 
WAVCIS,ioos:station:WAVCIS:CSI06:1,2009-05-01T13:00:00Z,28.8667,-90.4833,1019.35,11111222 
WAVCIS,ioos:station:WAVCIS:CSI06:1,2009-05-01T14:00:00Z,28.8667,-90.4833,1019.84,11111222 
WAVCIS,ioos:station:WAVCIS:CSI06:1,2009-05-01T15:00:00Z,28.8667,-90.4833,1019.98,11111222 
WAVCIS,ioos:station:WAVCIS:CSI06:1,2009-05-01T16:00:00Z,28.8667,-90.4833,1020.13,11111222 
WAVCIS,ioos:station:WAVCIS:CSI06:1,2009-05-01T17:00:00Z,28.8667,-90.4833,1019.98,11111222 
WAVCIS,ioos:station:WAVCIS:CSI06:1,2009-05-01T18:00:00Z,28.8667,-90.4833,1019.96,11111222 
WAVCIS,ioos:station:WAVCIS:CSI06:1,2009-05-01T19:00:00Z,28.8667,-90.4833,1019.66,11111222 
WAVCIS,ioos:station:WAVCIS:CSI06:1,2009-05-01T20:00:00Z,28.8667,-90.4833,1019.25,11111222 
WAVCIS,ioos:station:WAVCIS:CSI06:1,2009-05-01T21:00:00Z,28.8667,-90.4833,1018.74,11111222 
WAVCIS,ioos:station:WAVCIS:CSI06:1,2009-05-01T22:00:00Z,28.8667,-90.4833,1018.25,11111222 
WAVCIS,ioos:station:WAVCIS:CSI06:1,2009-05-01T23:00:00Z,28.8667,-90.4833,1017.89,11111222 
WAVCIS,ioos:station:WAVCIS:CSI06:1,2009-05-02T00:00:00Z,28.8667,-90.4833,1017.75,11111222 
WAVCIS,ioos:station:WAVCIS:CSI06:1,2009-05-02T01:00:00Z,28.8667,-90.4833,1017.84,11111222 
WAVCIS,ioos:station:WAVCIS:CSI06:1,2009-05-02T02:00:00Z,28.8667,-90.4833,1017.88,11111222 
WAVCIS,ioos:station:WAVCIS:CSI06:1,2009-05-02T03:00:00Z,28.8667,-90.4833,1018.28,11111222 
WAVCIS,ioos:station:WAVCIS:CSI06:1,2009-05-02T04:00:00Z,28.8667,-90.4833,1018.32,11111222 
WAVCIS,ioos:station:WAVCIS:CSI06:1,2009-05-02T05:00:00Z,28.8667,-90.4833,1017.84,11111222 
WAVCIS,ioos:station:WAVCIS:CSI06:1,2009-05-02T06:00:00Z,28.8667,-90.4833,1017.54,11111222 
WAVCIS,ioos:station:WAVCIS:CSI06:1,2009-05-02T07:00:00Z,28.8667,-90.4833,1016.68,11111222 
WAVCIS,ioos:station:WAVCIS:CSI06:1,2009-05-02T08:00:00Z,28.8667,-90.4833,1016.5,11111222 
WAVCIS,ioos:station:WAVCIS:CSI06:1,2009-05-02T09:00:00Z,28.8667,-90.4833,1016.46,11111222 
WAVCIS,ioos:station:WAVCIS:CSI06:1,2009-05-02T10:00:00Z,28.8667,-90.4833,1016.55,11111222 
WAVCIS,ioos:station:WAVCIS:CSI06:1,2009-05-02T11:00:00Z,28.8667,-90.4833,1016.48,11111222 
WAVCIS,ioos:station:WAVCIS:CSI06:1,2009-05-02T12:00:00Z,28.8667,-90.4833,1017.19,11111222 
WAVCIS,ioos:station:WAVCIS:CSI06:1,2009-05-02T13:00:00Z,28.8667,-90.4833,1017.25,11111222 
WAVCIS,ioos:station:WAVCIS:CSI06:1,2009-05-02T14:00:00Z,28.8667,-90.4833,1017.02,11111222 
WAVCIS,ioos:station:WAVCIS:CSI06:1,2009-05-02T15:00:00Z,28.8667,-90.4833,1016.98,11111222 
WAVCIS,ioos:station:WAVCIS:CSI06:1,2009-05-02T16:00:00Z,28.8667,-90.4833,1016.63,11111222 
WAVCIS,ioos:station:WAVCIS:CSI06:1,2009-05-02T17:00:00Z,28.8667,-90.4833,1016.07,11111222 
WAVCIS,ioos:station:WAVCIS:CSI06:1,2009-05-02T18:00:00Z,28.8667,-90.4833,1016.01,11111222 
WAVCIS,ioos:station:WAVCIS:CSI06:1,2009-05-02T19:00:00Z,28.8667,-90.4833,1015.29,11111222 
WAVCIS,ioos:station:WAVCIS:CSI06:1,2009-05-02T20:00:00Z,28.8667,-90.4833,1014.84,11111222 
WAVCIS,ioos:station:WAVCIS:CSI06:1,2009-05-02T21:00:00Z,28.8667,-90.4833,1013.86,11111222 
WAVCIS,ioos:station:WAVCIS:CSI06:1,2009-05-02T22:00:00Z,28.8667,-90.4833,1013.36,11111222 
WAVCIS,ioos:station:WAVCIS:CSI06:1,2009-05-02T23:00:00Z,28.8667,-90.4833,1012.89,11111222 
WAVCIS,ioos:station:WAVCIS:CSI06:1,2009-05-03T00:00:00Z,28.8667,-90.4833,1012.99,11111222 
WAVCIS,ioos:station:WAVCIS:CSI06:1,2009-05-03T01:00:00Z,28.8667,-90.4833,1013.07,11111222 
WAVCIS,ioos:station:WAVCIS:CSI06:1,2009-05-03T02:00:00Z,28.8667,-90.4833,1012.76,11111222 
WAVCIS,ioos:station:WAVCIS:CSI06:1,2009-05-03T03:00:00Z,28.8667,-90.4833,1013.1,11111222 
WAVCIS,ioos:station:WAVCIS:CSI06:1,2009-05-03T04:00:00Z,28.8667,-90.4833,1012.88,11111222 
WAVCIS,ioos:station:WAVCIS:CSI06:1,2009-05-03T05:00:00Z,28.8667,-90.4833,1012.67,11111222 
WAVCIS,ioos:station:WAVCIS:CSI06:1,2009-05-03T06:00:00Z,28.8667,-90.4833,1012.51,11111222 
WAVCIS,ioos:station:WAVCIS:CSI06:1,2009-05-03T07:00:00Z,28.8667,-90.4833,1012.31,11111222 
WAVCIS,ioos:station:WAVCIS:CSI06:1,2009-05-03T08:00:00Z,28.8667,-90.4833,1011.85,11111222 
WAVCIS,ioos:station:WAVCIS:CSI06:1,2009-05-03T09:00:00Z,28.8667,-90.4833,1012.19,11111222 
WAVCIS,ioos:station:WAVCIS:CSI06:1,2009-05-03T10:00:00Z,28.8667,-90.4833,1012.23,11111222 
WAVCIS,ioos:station:WAVCIS:CSI06:1,2009-05-03T11:00:00Z,28.8667,-90.4833,1011.19,11111222 
WAVCIS,ioos:station:WAVCIS:CSI06:1,2009-05-03T12:00:00Z,28.8667,-90.4833,1011.8,11111222 
WAVCIS,ioos:station:WAVCIS:CSI06:1,2009-05-03T13:00:00Z,28.8667,-90.4833,1012.35,11111222 
WAVCIS,ioos:station:WAVCIS:CSI06:1,2009-05-03T14:00:00Z,28.8667,-90.4833,1011.74,11111222 
WAVCIS,ioos:station:WAVCIS:CSI06:1,2009-05-03T15:00:00Z,28.8667,-90.4833,1012.24,11111222 
WAVCIS,ioos:station:WAVCIS:CSI06:1,2009-05-03T16:00:00Z,28.8667,-90.4833,1012.38,11111222 
WAVCIS,ioos:station:WAVCIS:CSI06:1,2009-05-03T17:00:00Z,28.8667,-90.4833,1012.84,11111222 
WAVCIS,ioos:station:WAVCIS:CSI06:1,2009-05-03T18:00:00Z,28.8667,-90.4833,1012.68,11111222 
WAVCIS,ioos:station:WAVCIS:CSI06:1,2009-05-03T19:00:00Z,28.8667,-90.4833,1012.38,11111222 
WAVCIS,ioos:station:WAVCIS:CSI06:1,2009-05-03T20:00:00Z,28.8667,-90.4833,1012.34,11111222 
WAVCIS,ioos:station:WAVCIS:CSI06:1,2009-05-03T21:00:00Z,28.8667,-90.4833,1011.71,11111222 
WAVCIS,ioos:station:WAVCIS:CSI06:1,2009-05-03T22:00:00Z,28.8667,-90.4833,1011.23,11111222 
WAVCIS,ioos:station:WAVCIS:CSI06:1,2009-05-03T23:00:00Z,28.8667,-90.4833,1011.57,11111222 
WAVCIS,ioos:station:WAVCIS:CSI06:1,2009-05-04T00:00:00Z,28.8667,-90.4833,1011.63,11111222 
WAVCIS,ioos:station:WAVCIS:CSI06:1,2009-05-04T01:00:00Z,28.8667,-90.4833,1011.43,11111222 
WAVCIS,ioos:station:WAVCIS:CSI06:1,2009-05-04T02:00:00Z,28.8667,-90.4833,1011.68,11111222 
WAVCIS,ioos:station:WAVCIS:CSI06:1,2009-05-04T03:00:00Z,28.8667,-90.4833,1011.69,11111222 
WAVCIS,ioos:station:WAVCIS:CSI06:1,2009-05-04T04:00:00Z,28.8667,-90.4833,1012.01,11111222 
WAVCIS,ioos:station:WAVCIS:CSI06:1,2009-05-04T05:00:00Z,28.8667,-90.4833,1012.01,11111222 
WAVCIS,ioos:station:WAVCIS:CSI06:1,2009-05-04T06:00:00Z,28.8667,-90.4833,1012.18,11111222 
WAVCIS,ioos:station:WAVCIS:CSI06:1,2009-05-04T07:00:00Z,28.8667,-90.4833,1011.92,11111222 
WAVCIS,ioos:station:WAVCIS:CSI06:1,2009-05-04T08:00:00Z,28.8667,-90.4833,1011.28,11111222 
WAVCIS,ioos:station:WAVCIS:CSI06:1,2009-05-04T09:00:00Z,28.8667,-90.4833,1011.33,11111222 
WAVCIS,ioos:station:WAVCIS:CSI06:1,2009-05-04T10:00:00Z,28.8667,-90.4833,1011.2,11111222 
WAVCIS,ioos:station:WAVCIS:CSI06:1,2009-05-04T11:00:00Z,28.8667,-90.4833,1012.09,11111222 
WAVCIS,ioos:station:WAVCIS:CSI06:1,2009-05-04T12:00:00Z,28.8667,-90.4833,1012.91,11111222 
WAVCIS,ioos:station:WAVCIS:CSI06:1,2009-05-04T13:00:00Z,28.8667,-90.4833,1013.25,11111222 
WAVCIS,ioos:station:WAVCIS:CSI06:1,2009-05-04T14:00:00Z,28.8667,-90.4833,1013.78,11111222 
WAVCIS,ioos:station:WAVCIS:CSI06:1,2009-05-04T15:00:00Z,28.8667,-90.4833,1014.25,11111222 
WAVCIS,ioos:station:WAVCIS:CSI06:1,2009-05-04T16:00:00Z,28.8667,-90.4833,1014.47,11111222 
WAVCIS,ioos:station:WAVCIS:CSI06:1,2009-05-04T17:00:00Z,28.8667,-90.4833,1014.5,11111222 
WAVCIS,ioos:station:WAVCIS:CSI06:1,2009-05-04T18:00:00Z,28.8667,-90.4833,1014.45,11111222 
WAVCIS,ioos:station:WAVCIS:CSI06:1,2009-05-04T19:00:00Z,28.8667,-90.4833,1014.33,11111222 
WAVCIS,ioos:station:WAVCIS:CSI06:1,2009-05-04T20:00:00Z,28.8667,-90.4833,1013.87,11111222 
WAVCIS,ioos:station:WAVCIS:CSI06:1,2009-05-04T21:00:00Z,28.8667,-90.4833,1012.72,11111222 
WAVCIS,ioos:station:WAVCIS:CSI06:1,2009-05-04T22:00:00Z,28.8667,-90.4833,1012.37,11111222 
WAVCIS,ioos:station:WAVCIS:CSI06:1,2009-05-04T23:00:00Z,28.8667,-90.4833,1012.12,11111222 
WAVCIS,ioos:station:WAVCIS:CSI06:1,2009-05-05T00:00:00Z,28.8667,-90.4833,1012.09,11111222 
WAVCIS,ioos:station:WAVCIS:CSI06:1,2009-05-05T01:00:00Z,28.8667,-90.4833,1012.32,11111222 
WAVCIS,ioos:station:WAVCIS:CSI06:1,2009-05-05T02:00:00Z,28.8667,-90.4833,1012.91,11111222 
WAVCIS,ioos:station:WAVCIS:CSI06:1,2009-05-05T03:00:00Z,28.8667,-90.4833,1013.59,11111222 
WAVCIS,ioos:station:WAVCIS:CSI06:1,2009-05-05T04:00:00Z,28.8667,-90.4833,1013.84,11111222 
WAVCIS,ioos:station:WAVCIS:CSI06:1,2009-05-05T05:00:00Z,28.8667,-90.4833,1013.89,11111222 
WAVCIS,ioos:station:WAVCIS:CSI06:1,2009-05-05T06:00:00Z,28.8667,-90.4833,1013.69,11111222 
WAVCIS,ioos:station:WAVCIS:CSI06:1,2009-05-05T07:00:00Z,28.8667,-90.4833,1013.34,11111222 
WAVCIS,ioos:station:WAVCIS:CSI06:1,2009-05-05T08:00:00Z,28.8667,-90.4833,1013.15,11111222 
WAVCIS,ioos:station:WAVCIS:CSI06:1,2009-05-05T09:00:00Z,28.8667,-90.4833,1013.48,11111222 
WAVCIS,ioos:station:WAVCIS:CSI06:1,2009-05-05T10:00:00Z,28.8667,-90.4833,1013.67,11111222 
WAVCIS,ioos:station:WAVCIS:CSI06:1,2009-05-05T11:00:00Z,28.8667,-90.4833,1013.77,11111222 
WAVCIS,ioos:station:WAVCIS:CSI06:1,2009-05-05T12:00:00Z,28.8667,-90.4833,1014.14,11111222 
WAVCIS,ioos:station:WAVCIS:CSI06:1,2009-05-05T13:00:00Z,28.8667,-90.4833,1015.11,11111222 
WAVCIS,ioos:station:WAVCIS:CSI06:1,2009-05-05T14:00:00Z,28.8667,-90.4833,1015.54,11111222 
WAVCIS,ioos:station:WAVCIS:CSI06:1,2009-05-05T15:00:00Z,28.8667,-90.4833,1015.86,11111222 
WAVCIS,ioos:station:WAVCIS:CSI06:1,2009-05-05T16:00:00Z,28.8667,-90.4833,1016.19,11111222 
WAVCIS,ioos:station:WAVCIS:CSI06:1,2009-05-05T17:00:00Z,28.8667,-90.4833,1016.03,11111222 
WAVCIS,ioos:station:WAVCIS:CSI06:1,2009-05-05T18:00:00Z,28.8667,-90.4833,1015.6,11111222 
WAVCIS,ioos:station:WAVCIS:CSI06:1,2009-05-05T19:00:00Z,28.8667,-90.4833,1015.22,11111222 
WAVCIS,ioos:station:WAVCIS:CSI06:1,2009-05-05T20:00:00Z,28.8667,-90.4833,1014.06,11111222 
WAVCIS,ioos:station:WAVCIS:CSI06:1,2009-05-05T21:00:00Z,28.8667,-90.4833,1013.63,11111222 
WAVCIS,ioos:station:WAVCIS:CSI06:1,2009-05-05T22:00:00Z,28.8667,-90.4833,1013.16,11111222 
WAVCIS,ioos:station:WAVCIS:CSI06:1,2009-05-05T23:00:00Z,28.8667,-90.4833,1012.83,11111222 
WAVCIS,ioos:station:WAVCIS:CSI06:1,2009-05-06T00:00:00Z,28.8667,-90.4833,1012.52,11111222 
WAVCIS,ioos:station:WAVCIS:CSI06:1,2009-05-06T01:00:00Z,28.8667,-90.4833,1012.96,11111222 
WAVCIS,ioos:station:WAVCIS:CSI06:1,2009-05-06T02:00:00Z,28.8667,-90.4833,1013.6,11111222 
WAVCIS,ioos:station:WAVCIS:CSI06:1,2009-05-06T03:00:00Z,28.8667,-90.4833,1013.56,11111222 
WAVCIS,ioos:station:WAVCIS:CSI06:1,2009-05-06T04:00:00Z,28.8667,-90.4833,1013.4,11111222 
WAVCIS,ioos:station:WAVCIS:CSI06:1,2009-05-06T05:00:00Z,28.8667,-90.4833,1012.89,11111222 
WAVCIS,ioos:station:WAVCIS:CSI06:1,2009-05-06T06:00:00Z,28.8667,-90.4833,1012.69,11111222 
WAVCIS,ioos:station:WAVCIS:CSI06:1,2009-05-06T07:00:00Z,28.8667,-90.4833,1012.04,11111222 
WAVCIS,ioos:station:WAVCIS:CSI06:1,2009-05-06T08:00:00Z,28.8667,-90.4833,1011.75,11111222 
WAVCIS,ioos:station:WAVCIS:CSI06:1,2009-05-06T09:00:00Z,28.8667,-90.4833,1011.21,11111222 
WAVCIS,ioos:station:WAVCIS:CSI06:1,2009-05-06T10:00:00Z,28.8667,-90.4833,1011.54,11111222 
WAVCIS,ioos:station:WAVCIS:CSI06:1,2009-05-06T11:00:00Z,28.8667,-90.4833,1011.55,11111222 
WAVCIS,ioos:station:WAVCIS:CSI06:1,2009-05-06T12:00:00Z,28.8667,-90.4833,1011.88,11111222 
WAVCIS,ioos:station:WAVCIS:CSI06:1,2009-05-06T13:00:00Z,28.8667,-90.4833,1012.82,11111222 
WAVCIS,ioos:station:WAVCIS:CSI06:1,2009-05-06T14:00:00Z,28.8667,-90.4833,1013.4,11111222 
WAVCIS,ioos:station:WAVCIS:CSI06:1,2009-05-06T15:00:00Z,28.8667,-90.4833,1013.41,11111222 
WAVCIS,ioos:station:WAVCIS:CSI06:1,2009-05-06T16:00:00Z,28.8667,-90.4833,1014.0,11111222 
WAVCIS,ioos:station:WAVCIS:CSI06:1,2009-05-06T17:00:00Z,28.8667,-90.4833,1014.03,11111222 
WAVCIS,ioos:station:WAVCIS:CSI06:1,2009-05-06T18:00:00Z,28.8667,-90.4833,1013.86,11111222 
WAVCIS,ioos:station:WAVCIS:CSI06:1,2009-05-06T19:00:00Z,28.8667,-90.4833,1013.76,11111222 
WAVCIS,ioos:station:WAVCIS:CSI06:1,2009-05-06T20:00:00Z,28.8667,-90.4833,1013.92,11111222 
WAVCIS,ioos:station:WAVCIS:CSI06:1,2009-05-06T21:00:00Z,28.8667,-90.4833,1013.38,11111222 
WAVCIS,ioos:station:WAVCIS:CSI06:1,2009-05-06T22:00:00Z,28.8667,-90.4833,1013.52,11111222 
WAVCIS,ioos:station:WAVCIS:CSI06:1,2009-05-06T23:00:00Z,28.8667,-90.4833,1013.13,11111222 
WAVCIS,ioos:station:WAVCIS:CSI06:1,2009-05-07T00:00:00Z,28.8667,-90.4833,1012.56,11111222 
WAVCIS,ioos:station:WAVCIS:CSI06:1,2009-05-07T01:00:00Z,28.8667,-90.4833,1012.81,11111222 
WAVCIS,ioos:station:WAVCIS:CSI06:1,2009-05-07T02:00:00Z,28.8667,-90.4833,1013.13,11111222 
WAVCIS,ioos:station:WAVCIS:CSI06:1,2009-05-07T03:00:00Z,28.8667,-90.4833,1013.39,11111222 
WAVCIS,ioos:station:WAVCIS:CSI06:1,2009-05-07T04:00:00Z,28.8667,-90.4833,1013.48,11111222 
WAVCIS,ioos:station:WAVCIS:CSI06:1,2009-05-07T05:00:00Z,28.8667,-90.4833,1013.46,11111222 
WAVCIS,ioos:station:WAVCIS:CSI06:1,2009-05-07T06:00:00Z,28.8667,-90.4833,1013.19,11111222 
WAVCIS,ioos:station:WAVCIS:CSI06:1,2009-05-07T07:00:00Z,28.8667,-90.4833,1012.98,11111222 
WAVCIS,ioos:station:WAVCIS:CSI06:1,2009-05-07T08:00:00Z,28.8667,-90.4833,1012.9,11111222 
WAVCIS,ioos:station:WAVCIS:CSI06:1,2009-05-07T09:00:00Z,28.8667,-90.4833,1012.95,11111222 
WAVCIS,ioos:station:WAVCIS:CSI06:1,2009-05-07T10:00:00Z,28.8667,-90.4833,1013.28,11111222 
WAVCIS,ioos:station:WAVCIS:CSI06:1,2009-05-07T11:00:00Z,28.8667,-90.4833,1013.57,11111222 
WAVCIS,ioos:station:WAVCIS:CSI06:1,2009-05-07T12:00:00Z,28.8667,-90.4833,1014.26,11111222 
WAVCIS,ioos:station:WAVCIS:CSI06:1,2009-05-07T13:00:00Z,28.8667,-90.4833,1014.86,11111222 
WAVCIS,ioos:station:WAVCIS:CSI06:1,2009-05-07T14:00:00Z,28.8667,-90.4833,1014.91,11111222 
WAVCIS,ioos:station:WAVCIS:CSI06:1,2009-05-07T15:00:00Z,28.8667,-90.4833,1014.97,11111222 
WAVCIS,ioos:station:WAVCIS:CSI06:1,2009-05-07T16:00:00Z,28.8667,-90.4833,1015.04,11111222 
WAVCIS,ioos:station:WAVCIS:CSI06:1,2009-05-07T17:00:00Z,28.8667,-90.4833,1014.89,11111222 
WAVCIS,ioos:station:WAVCIS:CSI06:1,2009-05-07T18:00:00Z,28.8667,-90.4833,1014.85,11111222 
WAVCIS,ioos:station:WAVCIS:CSI06:1,2009-05-07T19:00:00Z,28.8667,-90.4833,1014.62,11111222 
WAVCIS,ioos:station:WAVCIS:CSI06:1,2009-05-07T20:00:00Z,28.8667,-90.4833,1014.04,11111222 
WAVCIS,ioos:station:WAVCIS:CSI06:1,2009-05-07T21:00:00Z,28.8667,-90.4833,1013.66,11111222 
WAVCIS,ioos:station:WAVCIS:CSI06:1,2009-05-07T22:00:00Z,28.8667,-90.4833,1013.46,11111222 
WAVCIS,ioos:station:WAVCIS:CSI06:1,2009-05-07T23:00:00Z,28.8667,-90.4833,1013.21,11111222 
WAVCIS,ioos:station:WAVCIS:CSI06:1,2009-05-08T00:00:00Z,28.8667,-90.4833,1012.93,11111222 
WAVCIS,ioos:station:WAVCIS:CSI06:1,2009-05-08T01:00:00Z,28.8667,-90.4833,1012.95,11111222 
WAVCIS,ioos:station:WAVCIS:CSI06:1,2009-05-08T02:00:00Z,28.8667,-90.4833,1013.41,11111222 
WAVCIS,ioos:station:WAVCIS:CSI06:1,2009-05-08T03:00:00Z,28.8667,-90.4833,1013.64,11111222 
WAVCIS,ioos:station:WAVCIS:CSI06:1,2009-05-08T04:00:00Z,28.8667,-90.4833,1013.83,11111222 
WAVCIS,ioos:station:WAVCIS:CSI06:1,2009-05-08T05:00:00Z,28.8667,-90.4833,1013.63,11111222 
WAVCIS,ioos:station:WAVCIS:CSI06:1,2009-05-08T06:00:00Z,28.8667,-90.4833,1013.27,11111222 
WAVCIS,ioos:station:WAVCIS:CSI06:1,2009-05-08T07:00:00Z,28.8667,-90.4833,1012.68,11111222 
WAVCIS,ioos:station:WAVCIS:CSI06:1,2009-05-08T08:00:00Z,28.8667,-90.4833,1012.25,11111222 
WAVCIS,ioos:station:WAVCIS:CSI06:1,2009-05-08T09:00:00Z,28.8667,-90.4833,1012.07,11111222 
WAVCIS,ioos:station:WAVCIS:CSI06:1,2009-05-08T10:00:00Z,28.8667,-90.4833,1011.83,11111222 
WAVCIS,ioos:station:WAVCIS:CSI06:1,2009-05-08T11:00:00Z,28.8667,-90.4833,1011.78,11111222 
WAVCIS,ioos:station:WAVCIS:CSI06:1,2009-05-08T12:00:00Z,28.8667,-90.4833,1012.42,11111222 
WAVCIS,ioos:station:WAVCIS:CSI06:1,2009-05-08T13:00:00Z,28.8667,-90.4833,1012.62,11111222 
WAVCIS,ioos:station:WAVCIS:CSI06:1,2009-05-08T14:00:00Z,28.8667,-90.4833,1012.88,11111222 
WAVCIS,ioos:station:WAVCIS:CSI06:1,2009-05-08T15:00:00Z,28.8667,-90.4833,1013.09,11111222 
WAVCIS,ioos:station:WAVCIS:CSI06:1,2009-05-08T16:00:00Z,28.8667,-90.4833,1013.31,11111222 
WAVCIS,ioos:station:WAVCIS:CSI06:1,2009-05-08T17:00:00Z,28.8667,-90.4833,1013.62,11111222 
WAVCIS,ioos:station:WAVCIS:CSI06:1,2009-05-08T18:00:00Z,28.8667,-90.4833,1013.79,11111222 
WAVCIS,ioos:station:WAVCIS:CSI06:1,2009-05-08T19:00:00Z,28.8667,-90.4833,1014.03,11111222 
WAVCIS,ioos:station:WAVCIS:CSI06:1,2009-05-08T20:00:00Z,28.8667,-90.4833,1013.61,11111222 
WAVCIS,ioos:station:WAVCIS:CSI06:1,2009-05-08T21:00:00Z,28.8667,-90.4833,1012.78,11111222 
WAVCIS,ioos:station:WAVCIS:CSI06:1,2009-05-08T22:00:00Z,28.8667,-90.4833,1012.25,11111222 
WAVCIS,ioos:station:WAVCIS:CSI06:1,2009-05-08T23:00:00Z,28.8667,-90.4833,1012.12,11111222 
WAVCIS,ioos:station:WAVCIS:CSI06:1,2009-05-09T00:00:00Z,28.8667,-90.4833,1012.13,11111222 
WAVCIS,ioos:station:WAVCIS:CSI06:1,2009-05-09T01:00:00Z,28.8667,-90.4833,1012.33,11111222 
WAVCIS,ioos:station:WAVCIS:CSI06:1,2009-05-09T02:00:00Z,28.8667,-90.4833,1012.55,11111222 
WAVCIS,ioos:station:WAVCIS:CSI06:1,2009-05-09T03:00:00Z,28.8667,-90.4833,1013.14,11111222 
WAVCIS,ioos:station:WAVCIS:CSI06:1,2009-05-09T04:00:00Z,28.8667,-90.4833,1013.11,11111222 
WAVCIS,ioos:station:WAVCIS:CSI06:1,2009-05-09T05:00:00Z,28.8667,-90.4833,1013.03,11111222 
WAVCIS,ioos:station:WAVCIS:CSI06:1,2009-05-09T06:00:00Z,28.8667,-90.4833,1013.07,11111222 
WAVCIS,ioos:station:WAVCIS:CSI06:1,2009-05-09T07:00:00Z,28.8667,-90.4833,1012.84,11111222 
WAVCIS,ioos:station:WAVCIS:CSI06:1,2009-05-09T08:00:00Z,28.8667,-90.4833,1012.31,11111222 
WAVCIS,ioos:station:WAVCIS:CSI06:1,2009-05-09T09:00:00Z,28.8667,-90.4833,1012.33,11111222 
WAVCIS,ioos:station:WAVCIS:CSI06:1,2009-05-09T10:00:00Z,28.8667,-90.4833,1012.18,11111222 
WAVCIS,ioos:station:WAVCIS:CSI06:1,2009-05-09T11:00:00Z,28.8667,-90.4833,1012.97,11111222 
WAVCIS,ioos:station:WAVCIS:CSI06:1,2009-05-09T12:00:00Z,28.8667,-90.4833,1013.64,11111222 
WAVCIS,ioos:station:WAVCIS:CSI06:1,2009-05-09T13:00:00Z,28.8667,-90.4833,1015.12,11111222 
WAVCIS,ioos:station:WAVCIS:CSI06:1,2009-05-09T14:00:00Z,28.8667,-90.4833,1015.95,11111222 
WAVCIS,ioos:station:WAVCIS:CSI06:1,2009-05-09T15:00:00Z,28.8667,-90.4833,1016.46,11111222 
WAVCIS,ioos:station:WAVCIS:CSI06:1,2009-05-09T16:00:00Z,28.8667,-90.4833,1016.92,11111222 
WAVCIS,ioos:station:WAVCIS:CSI06:1,2009-05-09T17:00:00Z,28.8667,-90.4833,1016.97,11111222 
WAVCIS,ioos:station:WAVCIS:CSI06:1,2009-05-09T18:00:00Z,28.8667,-90.4833,1016.77,11111222 
WAVCIS,ioos:station:WAVCIS:CSI06:1,2009-05-09T19:00:00Z,28.8667,-90.4833,1016.47,11111222 
WAVCIS,ioos:station:WAVCIS:CSI06:1,2009-05-09T20:00:00Z,28.8667,-90.4833,1015.86,11111222 
WAVCIS,ioos:station:WAVCIS:CSI06:1,2009-05-09T21:00:00Z,28.8667,-90.4833,1014.91,11111222 
WAVCIS,ioos:station:WAVCIS:CSI06:1,2009-05-09T22:00:00Z,28.8667,-90.4833,1014.26,11111222 
WAVCIS,ioos:station:WAVCIS:CSI06:1,2009-05-09T23:00:00Z,28.8667,-90.4833,1014.58,11111222 
WAVCIS,ioos:station:WAVCIS:CSI06:1,2009-05-10T00:00:00Z,28.8667,-90.4833,1015.22,11111222 
WAVCIS,ioos:station:WAVCIS:CSI06:1,2009-05-10T01:00:00Z,28.8667,-90.4833,1015.88,11111222 
WAVCIS,ioos:station:WAVCIS:CSI06:1,2009-05-10T02:00:00Z,28.8667,-90.4833,1016.51,11111222 
WAVCIS,ioos:station:WAVCIS:CSI06:1,2009-05-10T03:00:00Z,28.8667,-90.4833,1016.84,11111222 
WAVCIS,ioos:station:WAVCIS:CSI06:1,2009-05-10T04:00:00Z,28.8667,-90.4833,1016.98,11111222 
WAVCIS,ioos:station:WAVCIS:CSI06:1,2009-05-10T05:00:00Z,28.8667,-90.4833,1016.54,11111222 
WAVCIS,ioos:station:WAVCIS:CSI06:1,2009-05-10T06:00:00Z,28.8667,-90.4833,1016.09,11111222 
WAVCIS,ioos:station:WAVCIS:CSI06:1,2009-05-10T07:00:00Z,28.8667,-90.4833,1016.42,11111222 
WAVCIS,ioos:station:WAVCIS:CSI06:1,2009-05-10T08:00:00Z,28.8667,-90.4833,1016.63,11111222 
WAVCIS,ioos:station:WAVCIS:CSI06:1,2009-05-10T09:00:00Z,28.8667,-90.4833,1016.36,11111222 
WAVCIS,ioos:station:WAVCIS:CSI06:1,2009-05-10T10:00:00Z,28.8667,-90.4833,1016.35,11111222 
WAVCIS,ioos:station:WAVCIS:CSI06:1,2009-05-10T11:00:00Z,28.8667,-90.4833,1016.65,11111222 
WAVCIS,ioos:station:WAVCIS:CSI06:1,2009-05-10T12:00:00Z,28.8667,-90.4833,1016.9,11111222 
WAVCIS,ioos:station:WAVCIS:CSI06:1,2009-05-10T13:00:00Z,28.8667,-90.4833,1017.28,11111222 
WAVCIS,ioos:station:WAVCIS:CSI06:1,2009-05-10T14:00:00Z,28.8667,-90.4833,1017.62,11111222 
WAVCIS,ioos:station:WAVCIS:CSI06:1,2009-05-10T15:00:00Z,28.8667,-90.4833,1018.04,11111222 
WAVCIS,ioos:station:WAVCIS:CSI06:1,2009-05-10T16:00:00Z,28.8667,-90.4833,1018.26,11111222 
WAVCIS,ioos:station:WAVCIS:CSI06:1,2009-05-10T17:00:00Z,28.8667,-90.4833,1018.64,11111222 
WAVCIS,ioos:station:WAVCIS:CSI06:1,2009-05-10T18:00:00Z,28.8667,-90.4833,1018.09,11111222 
WAVCIS,ioos:station:WAVCIS:CSI06:1,2009-05-10T19:00:00Z,28.8667,-90.4833,1017.5,11111222 
WAVCIS,ioos:station:WAVCIS:CSI06:1,2009-05-10T20:00:00Z,28.8667,-90.4833,1016.82,11111222 
WAVCIS,ioos:station:WAVCIS:CSI06:1,2009-05-10T21:00:00Z,28.8667,-90.4833,1015.93,11111222 
WAVCIS,ioos:station:WAVCIS:CSI06:1,2009-05-10T22:00:00Z,28.8667,-90.4833,1015.4,11111222 
WAVCIS,ioos:station:WAVCIS:CSI06:1,2009-05-10T23:00:00Z,28.8667,-90.4833,1015.63,11111222 
WAVCIS,ioos:station:WAVCIS:CSI06:1,2009-05-11T00:00:00Z,28.8667,-90.4833,1015.48,11111222 
WAVCIS,ioos:station:WAVCIS:CSI06:1,2009-05-11T01:00:00Z,28.8667,-90.4833,1015.57,11111222 
WAVCIS,ioos:station:WAVCIS:CSI06:1,2009-05-11T02:00:00Z,28.8667,-90.4833,1015.66,11111222 
WAVCIS,ioos:station:WAVCIS:CSI06:1,2009-05-11T03:00:00Z,28.8667,-90.4833,1016.28,11111222 
WAVCIS,ioos:station:WAVCIS:CSI06:1,2009-05-11T04:00:00Z,28.8667,-90.4833,1017.32,11111222 
WAVCIS,ioos:station:WAVCIS:CSI06:1,2009-05-11T05:00:00Z,28.8667,-90.4833,1017.54,11111222 
WAVCIS,ioos:station:WAVCIS:CSI06:1,2009-05-11T06:00:00Z,28.8667,-90.4833,1016.88,11111222 
WAVCIS,ioos:station:WAVCIS:CSI06:1,2009-05-11T07:00:00Z,28.8667,-90.4833,1016.04,11111222 
WAVCIS,ioos:station:WAVCIS:CSI06:1,2009-05-11T08:00:00Z,28.8667,-90.4833,1016.15,11111222 
WAVCIS,ioos:station:WAVCIS:CSI06:1,2009-05-11T09:00:00Z,28.8667,-90.4833,1016.39,11111222 
WAVCIS,ioos:station:WAVCIS:CSI06:1,2009-05-11T10:00:00Z,28.8667,-90.4833,1016.52,11111222 
WAVCIS,ioos:station:WAVCIS:CSI06:1,2009-05-11T11:00:00Z,28.8667,-90.4833,1016.61,11111222 
WAVCIS,ioos:station:WAVCIS:CSI06:1,2009-05-11T12:00:00Z,28.8667,-90.4833,1016.85,11111222 
WAVCIS,ioos:station:WAVCIS:CSI06:1,2009-05-11T13:00:00Z,28.8667,-90.4833,1017.03,11111222 
WAVCIS,ioos:station:WAVCIS:CSI06:1,2009-05-11T14:00:00Z,28.8667,-90.4833,1016.66,11111222 
WAVCIS,ioos:station:WAVCIS:CSI06:1,2009-05-11T15:00:00Z,28.8667,-90.4833,1016.71,11111222 
WAVCIS,ioos:station:WAVCIS:CSI06:1,2009-05-11T16:00:00Z,28.8667,-90.4833,1017.1,11111222 
WAVCIS,ioos:station:WAVCIS:CSI06:1,2009-05-11T17:00:00Z,28.8667,-90.4833,1017.09,11111222 
WAVCIS,ioos:station:WAVCIS:CSI06:1,2009-05-11T18:00:00Z,28.8667,-90.4833,1017.18,11111222 
WAVCIS,ioos:station:WAVCIS:CSI06:1,2009-05-11T19:00:00Z,28.8667,-90.4833,1017.29,11111222 
WAVCIS,ioos:station:WAVCIS:CSI06:1,2009-05-11T20:00:00Z,28.8667,-90.4833,1016.79,11111222 
WAVCIS,ioos:station:WAVCIS:CSI06:1,2009-05-11T21:00:00Z,28.8667,-90.4833,1015.96,11111222 
WAVCIS,ioos:station:WAVCIS:CSI06:1,2009-05-11T22:00:00Z,28.8667,-90.4833,1015.72,11111222 